| time (UTC) | temp C | wind direction | speed KPH | gust KPH | rain 1hr cm | rain 24hr cm | rain mn cm | humidity % | barometer mb |
| 20260503191535 | 13 | 28 | 3.2 | 8.0 | 0.00 | 0.23 | 0.18 | 27 | 1009.0 |
| 20260503190037 | 13 | 55 | 1.6 | 4.8 | 0.00 | 0.23 | 0.18 | 29 | 1008.8 |
| 20260503184527 | 13 | 61 | 3.2 | 8.0 | 0.00 | 0.23 | 0.18 | 33 | 1008.7 |
| 20260503183028 | 13 | 355 | 1.6 | 9.7 | 0.00 | 0.23 | 0.18 | 35 | 1008.7 |
| 20260503181518 | 13 | 47 | 3.2 | 11.3 | 0.00 | 0.23 | 0.18 | 37 | 1008.6 |
| 20260503180024 | 13 | 29 | 1.6 | 14.5 | 0.00 | 0.23 | 0.18 | 39 | 1008.6 |
| 20260503174513 | 13 | 343 | 6.4 | 12.9 | 0.00 | 0.30 | 0.18 | 35 | 1008.5 |
| 20260503173010 | 13 | 20 | 3.2 | 12.9 | 0.00 | 0.30 | 0.18 | 32 | 1008.5 |
| 20260503171603 | 13 | 321 | 3.2 | 14.5 | 0.00 | 0.30 | 0.18 | 33 | 1008.4 |
| 20260503081527 | 10 | 22 | 8.0 | 19.3 | 0.00 | 0.36 | 0.15 | 1 | 1008.4 |
| 20260503071507 | 10 | 43 | 6.4 | 14.5 | 0.05 | 0.36 | 0.15 | 1 | 1008.2 |
| 20260503060103 | 10 | 60 | 6.4 | 12.9 | 0.05 | 0.28 | 0.08 | 1 | 1007.7 |
| 20260503054541 | 10 | 43 | 3.2 | 9.7 | 0.05 | 0.28 | 0.08 | 1 | 1007.6 |
| 20260503053041 | 10 | 60 | 4.8 | 9.7 | 0.08 | 0.28 | 0.08 | 1 | 1007.5 |
| 20260503051532 | 10 | 65 | 4.8 | 9.7 | 0.03 | 0.23 | 0.03 | 1 | 1007.5 |
| 20260503050029 | 10 | 75 | 4.8 | 8.0 | 0.03 | 0.23 | 0.03 | 1 | 1007.5 |
| 20260503044528 | 10 | 74 | 4.8 | 9.7 | 0.03 | 0.23 | 0.03 | 1 | 1007.6 |
| 20260503043019 | 10 | 81 | 3.2 | 11.3 | 0.00 | 0.20 | 0.00 | 1 | 1007.6 |
| 20260503041515 | 10 | 76 | 9.7 | 14.5 | 0.00 | 0.20 | 0.00 | 1 | 1007.7 |
| 20260503040010 | 10 | 88 | 4.8 | 14.5 | 0.00 | 0.20 | 0.00 | 1 | 1007.7 |
| 20260503034506 | 10 | 112 | 8.0 | 12.9 | 0.00 | 0.20 | 0.00 | 1 | 1007.7 |
| 20260503033003 | 11 | 74 | 4.8 | 12.9 | 0.00 | 0.20 | 0.00 | 1 | 1007.7 |
| 20260503031605 | 11 | 63 | 4.8 | 12.9 | 0.00 | 0.20 | 0.00 | 1 | 1007.6 |
| 20260503030056 | 11 | 55 | 9.7 | 12.9 | 0.00 | 0.20 | 0.00 | 1 | 1007.6 |
| 20260503024553 | 11 | 14 | 3.2 | 6.4 | 0.00 | 0.20 | 0.00 | 1 | 1007.6 |
| 20260503023056 | 11 | 49 | 3.2 | 8.0 | 0.00 | 0.20 | 0.00 | 1 | 1007.7 |
| 20260503021545 | 11 | 89 | 1.6 | 11.3 | 0.00 | 0.20 | 0.00 | 1 | 1007.8 |
| 20260503020036 | 11 | 75 | 6.4 | 9.7 | 0.00 | 0.20 | 0.00 | 1 | 1007.9 |
| 20260503014532 | 11 | 57 | 8.0 | 11.3 | 0.00 | 0.20 | 0.00 | 1 | 1008.0 |
| 20260503013027 | 11 | 61 | 3.2 | 8.0 | 0.00 | 0.20 | 0.00 | 1 | 1008.1 |
| 20260503011523 | 11 | 67 | 3.2 | 8.0 | 0.00 | 0.20 | 0.00 | 1 | 1008.2 |
| 20260503010029 | 11 | 61 | 4.8 | 9.7 | 0.00 | 0.20 | 0.00 | 1 | 1008.3 |
| 20260503004515 | 11 | 61 | 3.2 | 6.4 | 0.00 | 0.20 | 0.00 | 1 | 1008.4 |
| 20260503003010 | 11 | 72 | 4.8 | 6.4 | 0.00 | 0.20 | 0.00 | 1 | 1008.4 |
| 20260503001506 | 11 | 76 | 3.2 | 8.0 | 0.00 | 0.20 | 0.00 | 1 | 1008.6 |
| 20260503000002 | 11 | 96 | 3.2 | 6.4 | 0.00 | 0.20 | 0.00 | 1 | 1008.6 |
| 20260502234558 | 11 | 90 | 3.2 | 9.7 | 0.00 | 0.20 | 0.00 | 1 | 1008.7 |
| 20260502233056 | 11 | 103 | 3.2 | 11.3 | 0.00 | 0.20 | 0.00 | 1 | 1008.8 |
| 20260502231549 | 11 | 87 | 4.8 | 12.9 | 0.00 | 0.20 | 0.00 | 1 | 1008.8 |
| 20260502230045 | 11 | 108 | 9.7 | 12.9 | 0.00 | 0.20 | 0.00 | 1 | 1008.8 |
| 20260502224540 | 11 | 116 | 6.4 | 11.3 | 0.03 | 0.20 | 0.20 | 1 | 1008.9 |
| 20260502223035 | 11 | 102 | 9.7 | 16.1 | 0.03 | 0.20 | 0.20 | 1 | 1008.9 |
| 20260502221532 | 11 | 122 | 4.8 | 12.9 | 0.03 | 0.20 | 0.20 | 1 | 1009.0 |
| 20260502220030 | 11 | 130 | 3.2 | 12.9 | 0.03 | 0.20 | 0.20 | 1 | 1009.0 |
| 20260502214522 | 11 | 132 | 6.4 | 12.9 | 0.00 | 0.18 | 0.18 | 1 | 1009.0 |
| 20260502213020 | 11 | 123 | 6.4 | 11.3 | 0.00 | 0.18 | 0.18 | 1 | 1009.0 |
| 20260502211514 | 11 | 131 | 4.8 | 17.7 | 0.00 | 0.18 | 0.18 | 1 | 1009.0 |
| 20260502210009 | 11 | 128 | 9.7 | 14.5 | 0.00 | 0.18 | 0.18 | 1 | 1009.0 |
| 20260502204514 | 11 | 97 | 4.8 | 12.9 | 0.00 | 0.18 | 0.18 | 1 | 1009.0 |
| 20260502203100 | 11 | 132 | 4.8 | 9.7 | 0.00 | 0.18 | 0.18 | 1 | 1009.1 |
| 20260502201559 | 11 | 97 | 4.8 | 12.9 | 0.00 | 0.18 | 0.18 | 1 | 1009.0 |
| 20260502200056 | 11 | 94 | 9.7 | 17.7 | 0.03 | 0.18 | 0.18 | 1 | 1009.1 |
| 20260502194548 | 11 | 121 | 6.4 | 16.1 | 0.03 | 0.18 | 0.18 | 1 | 1009.0 |
| 20260502193046 | 11 | 101 | 12.9 | 19.3 | 0.03 | 0.18 | 0.18 | 1 | 1009.1 |